TimePDT,TemperatureF,Dew PointF,Humidity,Sea Level PressureIn,VisibilityMPH,Wind Direction,Wind SpeedMPH,Gust SpeedMPH,PrecipitationIn,Events,Conditions,WindDirDegrees,DateUTC
12:53 AM,66.0,30.0,26,30.12,10.0,WSW,5.8,-,N/A,,Clear,250,2013-04-27 07:53:00
1:53 AM,59.0,35.1,41,30.13,10.0,SW,3.5,-,N/A,,Clear,230,2013-04-27 08:53:00
2:53 AM,57.9,35.1,42,30.11,10.0,Calm,Calm,-,N/A,,Clear,0,2013-04-27 09:53:00
3:53 AM,53.1,37.0,55,30.11,10.0,West,4.6,-,N/A,,Clear,280,2013-04-27 10:53:00
4:53 AM,52.0,37.0,57,30.11,10.0,Calm,Calm,-,N/A,,Clear,0,2013-04-27 11:53:00
5:53 AM,53.1,36.0,52,30.10,10.0,Calm,Calm,-,N/A,,Clear,0,2013-04-27 12:53:00
6:53 AM,50.0,37.0,61,30.10,10.0,West,5.8,-,N/A,,Scattered Clouds,280,2013-04-27 13:53:00
7:53 AM,53.1,39.0,59,30.11,10.0,SSW,4.6,-,N/A,,Clear,210,2013-04-27 14:53:00
8:53 AM,59.0,36.0,42,30.11,10.0,Calm,Calm,-,N/A,,Scattered Clouds,0,2013-04-27 15:53:00
9:53 AM,64.9,34.0,32,30.10,10.0,Calm,Calm,-,N/A,,Scattered Clouds,0,2013-04-27 16:53:00
10:53 AM,73.0,28.0,19,30.08,10.0,NNE,5.8,-,N/A,,Clear,30,2013-04-27 17:53:00
11:53 AM,75.9,26.1,16,30.07,10.0,SSW,8.1,-,N/A,,Clear,210,2013-04-27 18:53:00
12:53 PM,77.0,28.9,17,30.05,10.0,WNW,20.7,28.8,N/A,,Clear,290,2013-04-27 19:53:00
1:53 PM,78.1,28.9,17,30.04,10.0,WNW,20.7,29.9,N/A,,Clear,300,2013-04-27 20:53:00
2:53 PM,73.0,30.0,20,30.05,10.0,WNW,21.9,33.4,N/A,,Clear,300,2013-04-27 21:53:00
3:53 PM,69.1,33.1,26,30.06,10.0,West,15.0,26.5,N/A,,Mostly Cloudy,280,2013-04-27 22:53:00
4:53 PM,66.9,35.1,31,30.09,10.0,WNW,19.6,-,N/A,,Scattered Clouds,290,2013-04-27 23:53:00
5:53 PM,64.0,37.0,37,30.09,10.0,West,27.6,36.8,N/A,,Scattered Clouds,280,2013-04-28 00:53:00
6:53 PM,63.0,37.0,38,30.09,10.0,West,25.3,38.0,N/A,,Scattered Clouds,280,2013-04-28 01:53:00
7:53 PM,61.0,37.0,41,30.08,10.0,WSW,16.1,28.8,N/A,,Scattered Clouds,250,2013-04-28 02:53:00
8:53 PM,61.0,37.0,41,30.08,10.0,WSW,16.1,-,N/A,,Scattered Clouds,250,2013-04-28 03:53:00
9:53 PM,59.0,37.9,46,30.08,10.0,WSW,13.8,20.7,N/A,,Partly Cloudy,240,2013-04-28 04:53:00
10:53 PM,57.9,37.9,47,30.09,10.0,Variable,4.6,21.9,N/A,,Partly Cloudy,0,2013-04-28 05:53:00
11:53 PM,55.0,37.0,51,30.09,10.0,Calm,Calm,-,N/A,,Clear,0,2013-04-28 06:53:00